Location: ?????????
(53.2086°N, 54.0693°E)
Time: 17:21:36
(UTC+00:00)

Cosmos 1441 Rocket - Pass Details

Date: 08 December 2019
Orbit: 496 x 541 km, 81.1° (Epoch: 26 January)

Event Time Altitude Azimuth Distance (km) Brightness Sun altitude
Rises 13:46:39 0° 353° (N) 2,671 6.7 -13.9°
Reaches altitude 10° 13:49:01 10° 4° (N) 1,769 5.7 -14.2°
Maximum altitude 13:52:29 30° 67° (ENE) 949 3.9 -14.7°
Enters shadow 13:54:31 19° 116° (ESE) 1,285 4.8 -15.0°
